Location: Cantaing
(50.1487°N, 3.1675°E)
Time: 11:07:04
(UTC+00:00)

Cosmos 1408 Rocket - Pass Details

Date: 14 January 2026
Orbit: 594 x 623 km, 82.6° (Epoch: 10 February)

Event Time Altitude Azimuth Distance (km) Brightness Sun altitude
Rises 06:03:55 0° 206° (SSW) 2,863 6.9 -15.0°
Reaches altitude 10° 06:06:13 10° 213° (SSW) 1,959 6.0 -14.7°
Maximum altitude 06:10:21 43° 285° (WNW) 855 3.8 -14.0°
Drops below altitude 10° 06:14:30 10° 358° (N) 1,957 5.9 -13.4°
Sets 06:16:48 0° 5° (N) 2,860 6.8 -13.0°
